THA433 VTBS-WIII

Flight info

Callsign THA433
Flight time N/A
Altitude 39000
Route BUT1E BUT Y11 PASVA Y514 NUFFA DCT BIKTA B469 VMR B338 ANITO B470 BUNIK
Aircraft A333/H-SDE3GHIJ2J3J5M1RVWXY/LB2D1

Departure

Time 2026-04-30 14:10
Airport Suvarnabhumi Airport (VTBS)

Arrival

Time N/A
Airport Soekarno-Hatta International Airport (WIII)
Time Latitude Longitude Altitude Speed Heading
2026-04-30 13:43 13.69068 100.75070 -11 ft 0 kts 14°
2026-04-30 14:00 13.69029 100.75060 20 ft 4 kts 14°
2026-04-30 14:00 13.69008 100.75055 19 ft 4 kts 21°
2026-04-30 14:01 13.68993 100.75042 20 ft 4 kts 96°
2026-04-30 14:01 13.68998 100.75017 22 ft 4 kts 104°
2026-04-30 14:01 13.69000 100.75009 19 ft 1 kts 104°
2026-04-30 14:03 13.69000 100.75010 19 ft 2 kts 104°
2026-04-30 14:04 13.68980 100.75090 17 ft 15 kts 104°
2026-04-30 14:04 13.68953 100.75187 17 ft 11 kts 117°
2026-04-30 14:04 13.68914 100.75206 17 ft 9 kts 170°
2026-04-30 14:04 13.68812 100.75191 17 ft 17 kts 195°
2026-04-30 14:05 13.68692 100.75159 17 ft 19 kts 194°
2026-04-30 14:05 13.68595 100.75148 17 ft 6 kts 152°
2026-04-30 14:05 13.68564 100.75223 17 ft 15 kts 105°
2026-04-30 14:05 13.68536 100.75333 17 ft 17 kts 104°
2026-04-30 14:06 13.68506 100.75452 17 ft 18 kts 104°
2026-04-30 14:06 13.68494 100.75628 17 ft 11 kts 40°
2026-04-30 14:07 13.68724 100.75695 17 ft 22 kts 14°
2026-04-30 14:07 13.68876 100.75735 17 ft 23 kts 14°
2026-04-30 14:07 13.69033 100.75776 17 ft 24 kts 14°
2026-04-30 14:08 13.69225 100.75873 16 ft 9 kts 83°
2026-04-30 14:08 13.69213 100.75943 16 ft 11 kts 104°
2026-04-30 14:08 13.69161 100.76062 16 ft 10 kts 136°
2026-04-30 14:09 13.69104 100.76082 16 ft 8 kts 186°
2026-04-30 14:09 13.69045 100.76065 16 ft 9 kts 193°
2026-04-30 14:09 13.68960 100.76048 18 ft 14 kts 196°
2026-04-30 14:10 13.68644 100.75965 19 ft 79 kts 193°
2026-04-30 14:10 13.67902 100.75772 14 ft 139 kts 194°
2026-04-30 14:10 13.66811 100.75488 60 ft 185 kts 194°
2026-04-30 14:10 13.65538 100.75150 814 ft 184 kts 192°
2026-04-30 14:11 13.64279 100.74945 1720 ft 186 kts 182°
2026-04-30 14:11 13.62925 100.74993 2216 ft 204 kts 176°
2026-04-30 14:11 13.61451 100.75100 2706 ft 219 kts 175°
2026-04-30 14:11 13.59919 100.75358 3275 ft 231 kts 165°
2026-04-30 14:12 13.58313 100.75821 3701 ft 246 kts 163°
2026-04-30 14:12 13.56646 100.76327 4249 ft 253 kts 163°
2026-04-30 14:12 13.54926 100.76841 4762 ft 263 kts 163°
2026-04-30 14:12 13.53746 100.77188 5120 ft 269 kts 164°
2026-04-30 14:13 13.51311 100.77894 6161 ft 273 kts 164°
2026-04-30 14:13 13.49481 100.78421 6965 ft 275 kts 165°
2026-04-30 14:13 13.47624 100.78955 7731 ft 279 kts 165°
2026-04-30 14:13 13.45742 100.79495 8536 ft 282 kts 165°
2026-04-30 14:14 13.43836 100.80041 9314 ft 286 kts 165°
2026-04-30 14:14 13.41937 100.80586 9811 ft 289 kts 165°
2026-04-30 14:14 13.39994 100.81141 9985 ft 291 kts 165°
2026-04-30 14:14 13.38004 100.81496 10006 ft 291 kts 176°
2026-04-30 14:15 13.35943 100.81557 10067 ft 308 kts 180°
2026-04-30 14:15 13.33728 100.81552 10391 ft 326 kts 180°
2026-04-30 14:15 13.31419 100.81541 10915 ft 336 kts 180°
2026-04-30 14:15 13.29058 100.81533 11572 ft 341 kts 180°
2026-04-30 14:16 13.26670 100.81527 12270 ft 345 kts 180°
2026-04-30 14:16 13.24250 100.81521 12990 ft 349 kts 180°
2026-04-30 14:16 13.21810 100.81517 13690 ft 353 kts 180°
2026-04-30 14:16 13.19340 100.81514 14300 ft 357 kts 180°
2026-04-30 14:17 13.16845 100.81511 14901 ft 361 kts 180°
2026-04-30 14:17 13.14322 100.81508 15494 ft 365 kts 180°
2026-04-30 14:17 13.11774 100.81505 16101 ft 368 kts 180°
2026-04-30 14:17 13.09197 100.81612 16701 ft 372 kts 173°
2026-04-30 14:18 13.06672 100.82222 17285 ft 376 kts 161°
2026-04-30 14:18 13.04231 100.83225 17869 ft 380 kts 157°
2026-04-30 14:18 12.99352 100.85429 18902 ft 387 kts 156°
2026-04-30 14:19 12.94379 100.87670 19879 ft 394 kts 156°
2026-04-30 14:19 12.91858 100.88800 20360 ft 397 kts 156°
2026-04-30 14:19 12.89320 100.89935 20852 ft 400 kts 156°
2026-04-30 14:20 12.86761 100.91079 21347 ft 402 kts 156°
2026-04-30 14:20 12.84187 100.92228 21810 ft 406 kts 156°
2026-04-30 14:20 12.78970 100.94557 22749 ft 412 kts 157°
2026-04-30 14:21 12.76333 100.95733 23189 ft 415 kts 157°
2026-04-30 14:21 12.74576 100.96517 23479 ft 418 kts 157°
2026-04-30 14:21 12.69203 100.98912 24202 ft 424 kts 157°
2026-04-30 14:22 12.66455 101.00039 24569 ft 427 kts 161°
2026-04-30 14:22 12.60735 101.01842 25293 ft 433 kts 165°
2026-04-30 14:22 12.57822 101.02659 25644 ft 436 kts 166°
2026-04-30 14:23 12.51926 101.04281 26323 ft 442 kts 166°
2026-04-30 14:23 12.45947 101.05951 27009 ft 448 kts 165°
2026-04-30 14:24 12.39889 101.07668 27681 ft 454 kts 165°
2026-04-30 14:24 12.36794 101.08370 28011 ft 457 kts 173°
2026-04-30 14:25 12.30432 101.08727 28700 ft 461 kts 180°
2026-04-30 14:25 12.23979 101.08707 29359 ft 466 kts 182°
2026-04-30 14:26 12.17456 101.08614 29989 ft 472 kts 181°
2026-04-30 14:26 12.14161 101.08572 30246 ft 474 kts 181°
2026-04-30 14:26 12.07531 101.08506 30813 ft 479 kts 182°
2026-04-30 14:27 12.04196 101.08479 31092 ft 481 kts 182°
2026-04-30 14:27 12.00843 101.08454 31366 ft 483 kts 182°
2026-04-30 14:27 11.97479 101.08429 31637 ft 485 kts 182°
2026-04-30 14:28 11.90710 101.08378 32185 ft 488 kts 182°
2026-04-30 14:28 11.87320 101.08353 32570 ft 487 kts 182°
2026-04-30 14:28 11.83934 101.08328 32973 ft 486 kts 182°
2026-04-30 14:28 11.80562 101.08302 33344 ft 485 kts 182°
2026-04-30 14:29 11.73812 101.08251 34034 ft 484 kts 183°
2026-04-30 14:29 11.67079 101.08200 34672 ft 483 kts 182°
2026-04-30 14:30 11.57059 101.09451 35586 ft 485 kts 172°
2026-04-30 14:31 11.50434 101.10681 36192 ft 484 kts 172°
2026-04-30 14:31 11.43824 101.11938 36760 ft 482 kts 172°
2026-04-30 14:31 11.40533 101.12558 37063 ft 482 kts 172°
2026-04-30 14:32 11.33936 101.13790 37606 ft 480 kts 172°
2026-04-30 14:32 11.30653 101.14400 37884 ft 480 kts 172°
2026-04-30 14:32 11.27370 101.15009 38157 ft 479 kts 172°
2026-04-30 14:33 11.24091 101.15616 38418 ft 479 kts 172°
2026-04-30 14:33 11.17589 101.16821 38871 ft 478 kts 172°
2026-04-30 14:33 11.14321 101.17426 38928 ft 476 kts 172°
2026-04-30 14:34 11.07796 101.18636 38929 ft 472 kts 172°
2026-04-30 14:34 11.01376 101.19824 38930 ft 471 kts 172°
2026-04-30 14:35 10.91701 101.21614 38932 ft 472 kts 172°
2026-04-30 14:36 10.85239 101.22809 38931 ft 472 kts 172°
2026-04-30 14:36 10.78791 101.24001 38930 ft 471 kts 172°
2026-04-30 14:37 10.72328 101.25196 38925 ft 471 kts 172°
2026-04-30 14:37 10.65877 101.26388 38930 ft 471 kts 172°
2026-04-30 14:38 10.59418 101.27580 38933 ft 471 kts 172°
2026-04-30 14:38 10.52961 101.28772 38933 ft 471 kts 172°
2026-04-30 14:39 10.46512 101.29962 38931 ft 471 kts 172°
2026-04-30 14:39 10.40055 101.31153 38928 ft 472 kts 172°
2026-04-30 14:40 10.30370 101.32943 38930 ft 471 kts 172°
2026-04-30 14:40 10.23924 101.34138 38930 ft 471 kts 172°
2026-04-30 14:41 10.17481 101.35331 38930 ft 471 kts 172°
2026-04-30 14:41 10.11037 101.36524 38930 ft 471 kts 172°
2026-04-30 14:42 10.04594 101.37716 38933 ft 471 kts 172°
2026-04-30 14:42 9.98146 101.38909 38931 ft 470 kts 172°
2026-04-30 14:43 9.91725 101.40097 38927 ft 469 kts 172°
2026-04-30 14:43 9.85308 101.41283 38927 ft 468 kts 172°
2026-04-30 14:44 9.78901 101.42466 38931 ft 468 kts 172°
2026-04-30 14:44 9.72488 101.43650 38934 ft 468 kts 172°
2026-04-30 14:45 9.66076 101.44834 38930 ft 468 kts 172°
2026-04-30 14:45 9.59709 101.46009 38930 ft 467 kts 171°
2026-04-30 14:46 9.53328 101.47186 38933 ft 466 kts 171°
2026-04-30 14:46 9.46956 101.48361 38933 ft 465 kts 171°
2026-04-30 14:47 9.40580 101.49536 38933 ft 466 kts 171°
2026-04-30 14:47 9.34205 101.50710 38933 ft 466 kts 171°
2026-04-30 14:48 9.27828 101.51885 38933 ft 466 kts 171°
2026-04-30 14:48 9.21455 101.53058 38933 ft 466 kts 171°
2026-04-30 14:49 9.15080 101.54231 38937 ft 466 kts 171°
2026-04-30 14:49 9.08702 101.55405 38938 ft 466 kts 171°
2026-04-30 14:50 8.99137 101.57164 38937 ft 466 kts 171°
2026-04-30 14:51 8.89578 101.58922 38935 ft 466 kts 170°
2026-04-30 14:52 8.80005 101.60684 38937 ft 466 kts 170°
2026-04-30 14:52 8.70424 101.62446 38938 ft 466 kts 170°
2026-04-30 14:53 8.60845 101.64207 38936 ft 466 kts 170°
2026-04-30 14:54 8.48071 101.66554 38937 ft 467 kts 169°
2026-04-30 14:55 8.38494 101.68313 38941 ft 466 kts 169°
2026-04-30 14:56 8.25711 101.70658 38937 ft 467 kts 169°
2026-04-30 14:57 8.16126 101.72416 38941 ft 467 kts 169°
2026-04-30 14:58 8.03414 101.74747 38936 ft 466 kts 169°
2026-04-30 14:58 7.93837 101.76519 38938 ft 467 kts 169°
2026-04-30 15:00 7.77897 101.79473 38936 ft 465 kts 169°
2026-04-30 15:01 7.65150 101.81832 38938 ft 466 kts 169°
2026-04-30 15:01 7.55572 101.83603 38941 ft 466 kts 169°
2026-04-30 15:02 7.49192 101.84783 38940 ft 465 kts 169°
2026-04-30 15:03 7.33272 101.87724 38942 ft 466 kts 169°
2026-04-30 15:04 7.17402 101.90655 38938 ft 464 kts 169°
2026-04-30 15:06 7.01505 101.93587 38938 ft 461 kts 168°
2026-04-30 15:07 6.88951 101.95902 38939 ft 458 kts 168°
2026-04-30 15:08 6.76403 101.98215 38934 ft 458 kts 168°
2026-04-30 15:09 6.61799 102.00905 38934 ft 457 kts 168°
2026-04-30 15:10 6.49299 102.03206 38933 ft 456 kts 168°
2026-04-30 15:11 6.30541 102.06658 38930 ft 457 kts 168°
2026-04-30 15:13 6.15323 102.10941 38930 ft 454 kts 161°
2026-04-30 15:14 5.94310 102.17887 38936 ft 454 kts 161°
2026-04-30 15:17 5.67586 102.27071 38934 ft 450 kts 157°
2026-04-30 15:19 5.44401 102.36436 38942 ft 449 kts 157°